WALDBURG Weather Reports


time (UTC)temp
C
wind
direction
speed
KPH
gust
KPH
rain 1hr
cm
rain 24hr
cm
rain mn
cm
humidity
%
barometer
mb
20260507143212 15 192 19.3 0.0 0.00 0.00 0.23 68 1013.3
20260507140210 15 288 8.0 0.0 0.00 0.00 0.23 66 1013.2
20260507133210 13 279 11.3 0.0 0.00 0.00 0.23 70 1013.7
20260507130210 13 296 8.0 0.0 0.00 0.00 0.23 74 1013.8
20260507123210 13 252 20.9 0.0 0.00 0.00 0.23 74 1013.7
20260507120211 13 277 22.5 0.0 0.00 0.00 0.23 75 1013.8
20260507113210 12 244 25.7 0.0 0.00 0.00 0.23 74 1013.7
20260507110210 11 269 29.0 0.0 0.00 0.00 0.23 78 1013.9
20260507103216 11 270 22.5 0.0 0.00 0.00 0.23 81 1013.9
20260507100212 11 285 27.4 0.0 0.00 0.00 0.23 85 1013.9
20260507093211 10 262 32.2 0.0 0.00 0.00 0.23 90 1013.8
20260507090211 8 264 19.3 0.0 0.00 0.00 0.23 93 1013.6
20260507083212 8 277 33.8 0.0 0.00 0.00 0.20 92 1013.4
20260507080211 8 274 27.4 0.0 0.00 0.00 0.20 93 1013.2
20260507073212 8 266 30.6 0.0 0.00 0.00 0.20 94 1013.1
20260507070212 7 250 25.7 0.0 0.00 0.00 0.18 95 1012.8
20260507063211 7 254 29.0 0.0 0.00 0.00 0.18 95 1012.6
20260507060211 7 259 19.3 0.0 0.00 0.00 0.15 94 1012.3
20260507053211 7 250 22.5 0.0 0.00 0.00 0.05 94 1012.2
20260507050213 7 266 24.1 0.0 0.00 0.00 0.03 93 1011.8
20260507043211 7 271 25.7 0.0 0.00 0.00 0.00 92 1011.5
20260507040216 7 256 17.7 0.0 0.00 0.00 0.00 92 1011.2
20260507033211 7 267 20.9 0.0 0.00 0.00 0.00 93 1011.1
20260507030211 7 247 17.7 0.0 0.00 0.00 0.00 92 1011.0
20260507023211 7 271 14.5 0.0 0.00 0.00 0.00 92 1011.0
20260507020211 7 284 25.7 0.0 0.00 0.00 0.00 91 1010.9
20260507013212 7 269 32.2 0.0 0.00 0.00 0.00 91 1010.4
20260507010211 7 294 27.4 0.0 0.00 0.00 0.00 92 1010.2
20260507003209 7 274 19.3 0.0 0.00 0.00 0.00 94 1010.2
20260507000209 7 248 8.0 0.0 0.00 0.00 0.00 93 1010.2
20260506233209 7 254 14.5 0.0 0.00 0.00 0.00 93 1010.1
20260506230209 7 266 16.1 0.0 0.00 0.00 0.00 94 1009.8
20260506223209 7 282 14.5 0.0 0.00 0.00 0.00 94 1009.9
20260506220209 7 265 14.5 0.0 0.00 0.00 0.00 94 1009.7
20260506213209 7 248 14.5 0.0 0.00 0.00 0.61 93 1009.8
20260506210210 7 249 16.1 0.0 0.00 0.00 0.61 93 1009.8
20260506203210 8 281 16.1 0.0 0.00 0.00 0.61 91 1009.6
20260506200210 8 294 20.9 0.0 0.00 0.00 0.61 91 1009.4
20260506193215 8 269 25.7 0.0 0.00 0.00 0.61 91 1009.0
20260506190211 8 284 25.7 0.0 0.00 0.00 0.61 91 1008.4
20260506183209 8 225 24.1 0.0 0.00 0.00 0.61 91 1008.1
20260506180216 9 253 14.5 0.0 0.00 0.00 0.61 92 1008.0
20260506173210 8 271 29.0 0.0 0.00 0.00 0.61 91 1007.7
20260506170215 9 256 25.7 0.0 0.00 0.00 0.61 93 1007.5
20260506163210 8 262 24.1 0.0 0.00 0.00 0.61 93 1007.1
20260506160210 8 259 38.6 0.0 0.00 0.00 0.56 93 1007.3
20260506153210 8 239 35.4 0.0 0.00 0.00 0.53 94 1007.2
20260506150210 8 257 51.5 0.0 0.00 0.00 0.53 94 1006.6